This is the latest recevied weather packets stored in our database for station/object KM4KMS. If no packets are shown the sender has not sent any weather packets the latest 10 day(s).
| Time | Temp. | Humidity | Pressure | Rain* | Wind** | Luminosity | Snow |
|---|---|---|---|---|---|---|---|
| 1777749752 | 11.67° C | 56% | 1016.6 hPa | 0 mm | - | 155 W/m² | - |
| 1777749449 | 11.67° C | 61% | 1016.8 hPa | 0 mm | - | 164 W/m² | - |
| 1777749147 | 11.67° C | 59% | 1016.6 hPa | 0 mm | - | 119 W/m² | - |
| 1777748844 | 11.67° C | 58% | 1016.6 hPa | 0 mm | - | 98 W/m² | - |
| 1777748542 | 11.67° C | 59% | 1016.7 hPa | 0 mm | - | 134 W/m² | - |
| 1777748241 | 11.67° C | 60% | 1016.6 hPa | 0 mm | - | 219 W/m² | - |
| 1777747938 | 12.22° C | 59% | 1016.5 hPa | 0 mm | - | 282 W/m² | - |
| 1777747634 | 11.67° C | 59% | 1016.5 hPa | 0 mm | - | 226 W/m² | - |
| 1777747330 | 11.11° C | 60% | 1016.7 hPa | 0 mm | - | 235 W/m² | - |
| 1777747027 | 11.11° C | 59% | 1016.6 hPa | 0 mm | - | 210 W/m² | - |
| 1777746723 | 12.22° C | 60% | 1016.9 hPa | 0 mm | - | 198 W/m² | - |
| 1777746418 | 11.67° C | 60% | 1016.7 hPa | 0 mm | - | 246 W/m² | - |
| 1777746114 | 11.67° C | 59% | 1016.9 hPa | 0 mm | - | 258 W/m² | - |
| 1777745812 | 11.67° C | 58% | 1017 hPa | 0 mm | - | 234 W/m² | - |
| 1777745510 | 11.67° C | 60% | 1016.8 hPa | 0 mm | - | 174 W/m² | - |
| 1777745207 | 11.67° C | 60% | 1016.8 hPa | 0 mm | - | 166 W/m² | - |
| 1777744904 | 11.11° C | 64% | 1016.9 hPa | 0 mm | - | 186 W/m² | - |
| 1777744603 | 11.11° C | 63% | 1017 hPa | 0 mm | - | 201 W/m² | - |
| 1777744299 | 11.11° C | 61% | 1017 hPa | 0 mm | - | 99 W/m² | - |
| 1777743996 | 11.11° C | 61% | 1016.9 hPa | 0 mm | - | 102 W/m² | - |
| 1777743692 | 11.11° C | 61% | 1017 hPa | 0 mm | - | 84 W/m² | - |
| 1777743390 | 11.11° C | 62% | 1017.1 hPa | 0 mm | - | 73 W/m² | - |
| 1777743088 | 11.67° C | 61% | 1017 hPa | 0 mm | - | 93 W/m² | - |
| 1777742785 | 11.67° C | 61% | 1017.2 hPa | 0 mm | - | 140 W/m² | - |
| 1777742482 | 11.67° C | 57% | 1016.8 hPa | 0 mm | - | 232 W/m² | - |
* Rain latest hour (hover to see other rain measurements)
** Current wind speed in m/s (hover to see current wind gust speed)